DW2738 Weather Reports


Display with metric or nautical units.
time (UTC)temp
F
wind
direction
speed
MPH
gust
MPH
rain 1hr
in
rain 24hr
in
rain mn
in
humidity
%
barometer
mb
20260906133045 71 231 2.0 2.0 0.00 0.00 0.00 87 1014.0
20260906132540 71 324 3.0 5.0 0.00 0.00 0.00 88 1014.0
20260906132036 71 330 2.0 3.0 0.00 0.00 0.00 88 1013.8
20260906131531 71 246 0.0 4.0 0.00 0.00 0.00 88 1014.1
20260906131026 71 249 3.0 3.0 0.00 0.00 0.00 88 1013.8
20260906130526 71 294 2.0 3.0 0.00 0.00 0.00 90 1013.8
20260906130021 69 315 2.0 2.0 0.00 0.00 0.00 91 1013.7
20260906125518 69 246 1.0 2.0 0.00 0.00 0.00 91 1013.9
20260906125013 68 227 3.0 3.0 0.00 0.00 0.00 98 1013.6
20260906124509 68 227 3.0 3.0 0.00 0.00 0.00 98 1013.8
20260906124004 68 227 3.0 3.0 0.00 0.00 0.00 98 1013.7
20260906123502 64 270 1.0 1.0 0.00 0.00 0.00 99 1013.7
20260906122956 64 270 1.0 1.0 0.00 0.00 0.00 99 1013.6
20260906122451 64 270 1.0 1.0 0.00 0.00 0.00 99 1013.5
20260906121948 64 262 2.0 3.0 0.00 0.00 0.00 99 1013.5
20260906121444 63 254 0.0 0.0 0.00 0.00 0.00 99 1013.8
20260906120940 63 254 0.0 0.0 0.00 0.00 0.00 99 1013.7
20260906120435 62 270 0.0 1.0 0.00 0.00 0.00 99 1013.8
20260906115931 62 283 0.0 2.0 0.00 0.00 0.00 99 1013.5
20260906115427 62 277 1.0 2.0 0.00 0.00 0.00 99 1013.6
20260906114926 62 294 1.0 2.0 0.00 0.00 0.00 99 1013.5
20260906114421 62 237 0.0 2.0 0.00 0.00 0.00 99 1013.5
20260906113917 61 328 0.0 0.0 0.00 0.00 0.00 99 1013.2
20260906113415 61 191 0.0 2.0 0.00 0.00 0.00 99 1013.4
20260906112911 61 254 0.0 2.0 0.00 0.00 0.00 99 1013.2
20260906112407 61 270 1.0 1.0 0.00 0.00 0.00 99 1013.2
20260906111902 61 255 1.0 1.0 0.00 0.00 0.00 99 1013.1
20260906111401 61 270 0.0 2.0 0.00 0.00 0.00 99 1013.1
20260906110856 60 251 1.0 1.0 0.00 0.00 0.00 99 1013.0
20260906110352 60 246 1.0 1.0 0.00 0.00 0.00 99 1012.9
20260906105851 60 261 0.0 2.0 0.00 0.00 0.00 99 1013.0
20260906105347 60 294 2.0 3.0 0.00 0.00 0.00 99 1013.0
20260906104842 60 249 0.0 2.0 0.00 0.00 0.00 99 1012.8
20260906104341 60 240 1.0 2.0 0.00 0.00 0.00 99 1012.8
20260906103839 60 253 2.0 2.0 0.00 0.00 0.00 99 1012.5
20260906103338 60 262 1.0 2.0 0.00 0.00 0.00 99 1012.5
20260906102834 60 259 2.0 2.0 0.00 0.00 0.00 99 1012.5
20260906102333 60 254 1.0 2.0 0.00 0.00 0.00 99 1012.4
20260906101828 60 261 0.0 4.0 0.00 0.00 0.00 99 1012.3
20260906101323 60 246 1.0 2.0 0.00 0.00 0.00 99 1012.2
20260906100819 60 255 2.0 2.0 0.00 0.00 0.00 99 1012.3
20260906100318 60 263 1.0 2.0 0.00 0.00 0.00 99 1012.0
20260906095813 60 261 0.0 1.0 0.00 0.00 0.00 99 1012.1
20260906095309 60 270 0.0 3.0 0.00 0.00 0.00 99 1012.0
20260906094808 60 248 2.0 2.0 0.00 0.00 0.00 99 1011.9
20260906094303 60 246 1.0 2.0 0.00 0.00 0.00 99 1011.9
20260906093759 60 270 1.0 2.0 0.00 0.00 0.00 99 1011.9
20260906093255 60 270 1.0 2.0 0.00 0.00 0.00 99 1011.6
20260906092749 60 270 1.0 2.0 0.00 0.00 0.00 99 1011.6
20260906092244 59 270 1.0 1.0 0.00 0.00 0.00 99 1011.6
20260906091740 59 255 1.0 2.0 0.00 0.00 0.00 99 1011.6
20260906091236 59 263 1.0 2.0 0.00 0.00 0.00 99 1011.3
20260906090732 59 253 2.0 2.0 0.00 0.00 0.00 99 1011.3
20260906090231 59 270 0.0 2.0 0.00 0.00 0.00 99 1011.3
20260906085731 59 255 1.0 2.0 0.00 0.00 0.00 99 1011.2
20260906085230 59 262 1.0 2.0 0.00 0.00 0.00 99 1011.1
20260906084725 59 270 1.0 2.0 0.00 0.00 0.00 99 1011.3
20260906084224 59 254 1.0 2.0 0.00 0.00 0.00 99 1011.1
20260906083720 59 270 2.0 2.0 0.00 0.00 0.00 99 1011.1
20260906083215 60 249 1.0 2.0 0.00 0.00 0.00 99 1011.1
20260906082710 59 262 1.0 1.0 0.00 0.00 0.00 99 1011.0
20260906082205 59 243 2.0 2.0 0.00 0.00 0.00 99 1010.9
20260906081702 59 261 0.0 2.0 0.00 0.00 0.00 99 1011.2
20260906081156 59 249 1.0 1.0 0.00 0.00 0.00 99 1011.2
20260906080653 59 255 1.0 2.0 0.00 0.00 0.00 99 1011.1
20260906080148 60 240 2.0 2.0 0.00 0.00 0.00 99 1011.1
20260906075648 60 246 1.0 2.0 0.00 0.00 0.00 99 1011.2
20260906075142 60 246 1.0 2.0 0.00 0.00 0.00 99 1011.2
20260906074638 60 277 1.0 2.0 0.00 0.00 0.00 99 1010.8
20260906074137 60 270 1.0 2.0 0.00 0.00 0.00 99 1011.1
20260906073632 60 258 2.0 2.0 0.00 0.00 0.00 99 1010.9
20260906073128 60 233 2.0 2.0 0.00 0.00 0.00 99 1011.1
20260906072622 60 232 2.0 2.0 0.00 0.00 0.00 99 1011.1
20260906072118 60 221 2.0 3.0 0.00 0.00 0.00 99 1011.1
20260906071615 60 255 1.0 2.0 0.00 0.00 0.00 99 1011.1
20260906071109 60 243 2.0 2.0 0.00 0.00 0.00 99 1011.1
20260906070606 60 251 1.0 2.0 0.00 0.00 0.00 99 1011.0
20260906070101 61 243 2.0 2.0 0.00 0.00 0.00 99 1011.2
20260906065600 60 258 2.0 2.0 0.00 0.00 0.00 99 1011.1
20260906065056 60 270 1.0 2.0 0.00 0.00 0.00 99 1010.9
20260906064552 61 239 2.0 2.0 0.00 0.00 0.00 99 1011.1
20260906064046 61 257 1.0 2.0 0.00 0.00 0.00 99 1011.0
20260906063542 61 237 2.0 2.0 0.00 0.00 0.00 99 1011.1
20260906063038 61 263 1.0 1.0 0.00 0.00 0.00 99 1010.9
20260906062533 61 263 1.0 1.0 0.00 0.00 0.00 99 1011.2
20260906062027 61 241 2.0 2.0 0.00 0.00 0.00 99 1011.0
20260906061523 61 243 1.0 2.0 0.00 0.00 0.00 99 1011.0
20260906061022 61 270 2.0 2.0 0.00 0.00 0.00 99 1011.2
20260906060519 61 270 2.0 2.0 0.00 0.00 0.00 99 1011.2
20260906060016 61 240 2.0 2.0 0.00 0.00 0.00 99 1011.1
20260906055511 61 234 1.0 2.0 0.00 0.00 0.00 99 1011.3
20260906055006 61 270 1.0 2.0 0.00 0.00 0.00 99 1011.3
20260906054501 61 279 0.0 2.0 0.00 0.00 0.00 99 1011.4
20260906053956 61 286 0.0 2.0 0.00 0.00 0.00 99 1011.4
20260906053453 61 251 1.0 2.0 0.00 0.00 0.00 99 1011.1
20260906052948 61 279 0.0 1.0 0.00 0.00 0.00 99 1011.4
20260906052444 61 270 1.0 1.0 0.00 0.00 0.00 99 1011.3
20260906051941 61 243 1.0 2.0 0.00 0.00 0.00 99 1011.2
20260906051436 61 262 1.0 1.0 0.00 0.00 0.00 99 1011.4
20260906050931 61 233 0.0 2.0 0.00 0.00 0.00 99 1011.4
20260906050431 61 246 1.0 2.0 0.00 0.00 0.00 99 1011.5
20260906045930 62 270 0.0 2.0 0.00 0.00 0.00 99 1011.5
20260906045429 62 261 0.0 2.0 0.00 0.00 0.00 99 1011.7
20260906044926 62 262 0.0 2.0 0.00 0.00 0.00 99 1011.5
20260906044420 61 246 2.0 2.0 0.00 0.00 0.00 99 1011.6
20260906043915 62 261 0.0 1.0 0.00 0.00 0.00 99 1011.8
20260906043411 62 254 1.0 1.0 0.00 0.00 0.00 99 1011.6
20260906042907 62 270 0.0 1.0 0.00 0.00 0.00 99 1011.5
20260906042405 62 270 0.0 1.0 0.00 0.00 0.00 99 1011.4
20260906041900 62 270 0.0 1.0 0.00 0.00 0.00 99 1011.6
20260906041351 62 286 0.0 1.0 0.00 0.00 0.00 99 1011.5
20260906040851 62 270 0.0 0.0 0.00 0.00 0.00 99 1011.7
20260906040346 62 262 1.0 1.0 0.00 0.00 0.00 99 1011.7
20260906035841 62 255 0.0 1.0 0.00 0.10 0.10 99 1011.7
20260906035337 62 264 1.0 2.0 0.00 0.10 0.10 99 1011.8
20260906034832 62 275 2.0 2.0 0.00 0.10 0.10 99 1011.8
20260906034327 63 263 1.0 2.0 0.00 0.10 0.10 99 1011.6
20260906033823 63 300 2.0 2.0 0.00 0.10 0.10 99 1011.6
20260906033321 63 246 1.0 2.0 0.00 0.10 0.10 99 1011.6
20260906032818 63 278 0.0 2.0 0.00 0.10 0.10 99 1011.7
20260906032314 63 259 2.0 2.0 0.00 0.10 0.10 99 1011.7
20260906031809 63 315 0.0 2.0 0.00 0.10 0.10 99 1011.5
20260906031305 64 200 0.0 0.0 0.00 0.10 0.10 99 1011.5
20260906030804 64 200 0.0 0.0 0.00 0.10 0.10 98 1011.5
20260906030259 64 200 0.0 0.0 0.00 0.10 0.10 98 1011.3
20260906025759 64 200 0.0 0.0 0.00 0.10 0.10 98 1011.3
20260906025253 64 200 0.0 0.0 0.00 0.10 0.10 98 1011.3
20260906024752 64 200 0.0 0.0 0.00 0.10 0.10 98 1011.5
20260906024251 64 200 0.0 0.0 0.00 0.10 0.10 98 1011.4
20260906023747 64 200 0.0 0.0 0.00 0.10 0.10 98 1011.4
20260906023242 64 200 0.0 0.0 0.00 0.10 0.10 98 1011.7
20260906022738 64 200 0.0 0.0 0.00 0.10 0.10 98 1011.5
20260906022233 64 201 0.0 0.0 0.00 0.10 0.10 98 1011.3
20260906021729 64 200 0.0 0.0 0.00 0.10 0.10 98 1011.5
20260906021228 65 254 2.0 2.0 0.00 0.10 0.10 99 1011.5
20260906020723 65 254 2.0 2.0 0.00 0.10 0.10 99 1011.4
20260906020218 65 254 2.0 2.0 0.00 0.10 0.10 99 1011.4
20260906015717 65 254 2.0 2.0 0.00 0.10 0.10 99 1011.3
20260906015210 65 254 2.0 2.0 0.00 0.10 0.10 99 1011.3
20260906014710 65 254 2.0 2.0 0.00 0.10 0.10 99 1011.2
20260906014207 65 254 2.0 2.0 0.00 0.10 0.10 99 1011.2
20260906013702 65 254 2.0 2.0 0.00 0.10 0.10 99 1011.2
20260906013157 65 254 2.0 2.0 0.00 0.10 0.10 99 1011.0
20260906012652 65 254 2.0 2.0 0.00 0.10 0.10 99 1011.0
20260906012151 65 254 2.0 2.0 0.00 0.10 0.10 99 1011.2
20260906011648 65 254 2.0 2.0 0.00 0.10 0.10 99 1010.8
20260906011142 65 262 1.0 2.0 0.00 0.10 0.10 99 1011.1
20260906010637 65 246 1.0 2.0 0.00 0.10 0.10 99 1011.1
20260906010134 66 248 2.0 2.0 0.00 0.10 0.10 99 1011.1
20260906005633 66 253 2.0 2.0 0.00 0.10 0.10 98 1010.9
20260906005132 66 239 2.0 2.0 0.00 0.10 0.10 98 1011.0
20260906004632 66 255 1.0 2.0 0.00 0.10 0.10 98 1010.7
20260906004127 66 277 1.0 2.0 0.00 0.10 0.10 98 1010.9
20260906003622 66 270 1.0 2.0 0.00 0.10 0.10 97 1010.9
20260906003118 67 270 1.0 1.0 0.00 0.10 0.10 97 1010.8
20260906002612 67 270 1.0 1.0 0.00 0.10 0.10 96 1010.8
20260906002107 67 246 2.0 2.0 0.00 0.10 0.10 96 1010.5
20260906001602 67 253 2.0 2.0 0.00 0.10 0.10 96 1010.6
20260906001057 67 253 2.0 2.0 0.00 0.10 0.10 96 1010.6
20260906000553 67 243 1.0 1.0 0.00 0.10 0.10 95 1010.5
20260906000047 68 251 1.0 1.0 0.00 0.10 0.10 94 1010.1
20260905235541 68 261 0.0 1.0 0.00 0.10 0.10 94 1010.2
20260905235036 69 201 0.0 0.0 0.00 0.10 0.10 92 1009.9
20260905234527 72 255 2.0 2.0 0.00 0.10 0.10 86 1010.1
20260905234026 72 255 2.0 2.0 0.00 0.10 0.10 86 1010.1
20260905233521 72 255 2.0 2.0 0.00 0.10 0.10 86 1010.0
20260905233021 72 255 2.0 2.0 0.00 0.10 0.10 86 1009.9
20260905232516 72 255 2.0 2.0 0.00 0.10 0.10 86 1010.0
20260905232012 72 255 2.0 2.0 0.00 0.10 0.10 86 1010.0
20260905231507 72 255 2.0 2.0 0.00 0.10 0.10 86 1009.7
20260905231004 72 255 2.0 2.0 0.00 0.10 0.10 86 1009.7
20260905230503 72 255 2.0 2.0 0.00 0.10 0.10 86 1010.1
20260905230000 72 255 2.0 2.0 0.00 0.10 0.10 86 1009.9
20260905225456 72 255 2.0 2.0 0.00 0.10 0.10 86 1009.8
20260905224951 72 265 2.0 2.0 0.00 0.10 0.10 86 1009.8
20260905224446 72 265 2.0 2.0 0.00 0.10 0.10 86 1009.8
20260905223945 73 292 2.0 2.0 0.00 0.10 0.10 81 1009.8
20260905223443 73 292 2.0 2.0 0.00 0.10 0.10 81 1009.8
20260905222554 73 263 3.0 3.0 0.00 0.10 0.10 82 1009.4
20260905222050 73 263 3.0 3.0 0.00 0.10 0.10 82 1009.4
20260905221546 73 263 3.0 3.0 0.00 0.10 0.10 82 1009.5
20260905221042 73 270 2.0 2.0 0.00 0.10 0.10 82 1009.6
20260905220537 73 265 2.0 2.0 0.00 0.10 0.10 81 1009.4
20260905220033 73 256 3.0 3.0 0.00 0.10 0.10 82 1009.4
20260905215532 73 261 2.0 3.0 0.00 0.10 0.10 79 1009.5
20260905215029 73 266 3.0 3.0 0.00 0.10 0.10 79 1009.4
20260905214525 73 259 3.0 3.0 0.00 0.10 0.10 81 1009.2
20260905214019 73 265 2.0 3.0 0.00 0.10 0.10 81 1009.3
20260905213515 73 263 3.0 3.0 0.00 0.10 0.10 80 1009.3
20260905213010 74 258 2.0 3.0 0.00 0.10 0.10 77 1009.3
20260905212505 74 263 3.0 3.0 0.00 0.10 0.10 77 1009.4
20260905212004 74 259 3.0 3.0 0.00 0.10 0.10 77 1009.3
20260905211500 74 259 3.0 3.0 0.00 0.10 0.10 77 1009.4
20260905210955 75 258 2.0 3.0 0.00 0.10 0.10 75 1009.2
20260905210451 75 263 3.0 3.0 0.00 0.10 0.10 75 1009.0
20260905205950 75 260 2.0 3.0 0.00 0.10 0.10 74 1008.9
20260905205445 76 275 2.0 3.0 0.00 0.10 0.10 73 1009.1
20260905204943 77 259 3.0 3.0 0.00 0.10 0.10 69 1009.1
20260905204440 79 247 2.0 3.0 0.00 0.10 0.10 64 1009.3
20260905203939 79 247 2.0 3.0 0.00 0.10 0.10 64 1009.3
20260905203434 80 261 2.0 3.0 0.00 0.10 0.10 61 1009.0
20260905202930 80 294 3.0 4.0 0.00 0.10 0.10 60 1008.8
20260905202425 80 331 3.0 4.0 0.00 0.10 0.10 61 1009.1
20260905201920 80 263 3.0 3.0 0.00 0.10 0.10 60 1009.2
20260905201416 81 270 2.0 4.0 0.00 0.10 0.10 58 1009.1
20260905200915 82 255 3.0 3.0 0.00 0.10 0.10 60 1009.3
20260905200411 82 331 3.0 5.0 0.00 0.10 0.10 55 1009.3
20260905195909 81 266 3.0 3.0 0.00 0.10 0.10 59 1009.4
20260905195404 80 266 3.0 3.0 0.00 0.10 0.10 60 1009.4
20260905194900 81 262 3.0 5.0 0.00 0.10 0.10 59 1009.4
20260905194400 82 270 3.0 5.0 0.00 0.10 0.10 61 1009.3
20260905193900 82 265 2.0 3.0 0.00 0.10 0.10 62 1009.3
20260905193355 81 270 3.0 4.0 0.00 0.10 0.10 60 1009.4
20260905192850 82 251 2.0 4.0 0.00 0.10 0.10 58 1009.4
20260905192345 82 257 2.0 3.0 0.00 0.10 0.10 57 1009.5
20260905191845 82 252 3.0 4.0 0.00 0.10 0.10 58 1009.4
20260905191344 82 286 1.0 3.0 0.00 0.10 0.10 60 1009.5
20260905190843 81 267 3.0 3.0 0.00 0.10 0.10 58 1009.4
20260905190336 81 262 3.0 4.0 0.00 0.10 0.10 58 1009.6
20260905185835 80 270 2.0 5.0 0.00 0.10 0.10 61 1009.4
20260905185331 81 260 4.0 5.0 0.00 0.10 0.10 58 1009.5
20260905184830 80 259 3.0 5.0 0.00 0.10 0.10 63 1009.5
20260905184329 81 267 3.0 3.0 0.00 0.10 0.10 62 1009.5
20260905183828 81 270 3.0 6.0 0.00 0.10 0.10 59 1009.7
20260905183323 83 237 3.0 6.0 0.00 0.10 0.10 56 1009.7
20260905182818 83 233 0.0 5.0 0.00 0.10 0.10 56 1009.8
20260905182318 83 267 3.0 4.0 0.00 0.10 0.10 60 1010.1
20260905181813 82 305 2.0 5.0 0.00 0.10 0.10 61 1009.7
20260905181313 83 262 3.0 5.0 0.00 0.10 0.10 59 1009.9
20260905180812 82 282 4.0 5.0 0.00 0.10 0.10 59 1009.6
20260905180307 82 264 3.0 4.0 0.00 0.10 0.10 63 1009.8
20260905175802 81 0 0.0 5.0 0.00 0.10 0.10 61 1009.6
20260905175256 82 265 4.0 4.0 0.00 0.10 0.10 63 1010.0
20260905174752 81 257 4.0 5.0 0.00 0.10 0.10 62 1009.7
20260905174248 82 249 3.0 5.0 0.00 0.10 0.10 60 1009.7
20260905173743 82 259 3.0 5.0 0.00 0.10 0.10 61 1009.7
20260905173239 82 266 5.0 5.0 0.00 0.10 0.10 64 1009.7
20260905172733 82 250 3.0 6.0 0.00 0.10 0.10 63 1009.8
20260905172232 82 270 2.0 5.0 0.00 0.10 0.10 62 1010.0
20260905171729 81 264 3.0 6.0 0.00 0.10 0.10 61 1010.1
20260905171225 82 259 4.0 6.0 0.00 0.10 0.10 61 1009.8
20260905170721 81 213 3.0 6.0 0.00 0.10 0.10 59 1009.9
20260905170221 81 218 4.0 5.0 0.00 0.10 0.10 62 1010.1
20260905165715 82 274 3.0 3.0 0.00 0.10 0.10 64 1010.2
20260905165211 81 252 3.0 5.0 0.00 0.10 0.10 63 1010.1
20260905164710 81 212 2.0 6.0 0.00 0.10 0.10 67 1010.2
20260905164205 82 266 3.0 4.0 0.00 0.10 0.10 66 1010.2
20260905163701 82 223 5.0 5.0 0.00 0.10 0.10 66 1010.1
20260905163157 81 270 2.0 3.0 0.00 0.10 0.10 64 1010.0
20260905162653 80 266 5.0 6.0 0.00 0.10 0.10 62 1010.2
20260905162152 81 264 3.0 4.0 0.00 0.10 0.10 62 1010.1
20260905161647 81 290 3.0 5.0 0.00 0.10 0.10 61 1010.1
20260905161144 81 257 4.0 4.0 0.00 0.10 0.10 71 1010.6
20260905160639 80 252 3.0 5.0 0.00 0.10 0.10 71 1010.5
20260905160138 80 253 4.0 5.0 0.00 0.10 0.10 67 1010.6
20260905155633 80 270 3.0 4.0 0.00 0.10 0.10 69 1010.7
20260905155132 79 267 3.0 3.0 0.00 0.10 0.10 76 1010.8
20260905154632 79 267 3.0 3.0 0.00 0.10 0.10 76 1010.8
20260905154128 79 227 3.0 5.0 0.00 0.10 0.10 73 1010.5
20260905153623 78 256 3.0 4.0 0.00 0.10 0.10 74 1010.7
20260905153119 77 254 3.0 5.0 0.00 0.10 0.10 78 1010.7
20260905152613 76 263 3.0 5.0 0.00 0.10 0.10 79 1010.8
20260905152108 76 249 3.0 4.0 0.00 0.10 0.10 83 1011.0
20260905151603 75 244 3.0 3.0 0.00 0.10 0.10 82 1011.0
20260905151058 75 257 2.0 4.0 0.00 0.10 0.10 85 1010.9
20260905150553 74 264 3.0 4.0 0.00 0.10 0.10 84 1010.9
20260905150051 75 264 3.0 4.0 0.00 0.10 0.10 86 1011.0
20260905145544 74 262 3.0 3.0 0.00 0.10 0.10 86 1010.8
20260905145044 74 220 3.0 4.0 0.00 0.10 0.10 86 1010.6
20260905144539 74 258 2.0 3.0 0.00 0.10 0.10 87 1010.9
20260905144038 74 255 3.0 3.0 0.00 0.10 0.10 88 1010.7
20260905143538 73 262 3.0 3.0 0.00 0.10 0.10 88 1010.8
20260905143033 73 258 3.0 3.0 0.00 0.10 0.10 90 1010.5
20260905142531 73 270 2.0 3.0 0.00 0.10 0.10 91 1010.6
20260905142027 72 270 2.0 2.0 0.00 0.10 0.10 92 1010.5
20260905141521 71 260 2.0 3.0 0.00 0.10 0.10 92 1010.6
20260905141018 72 262 2.0 3.0 0.00 0.10 0.10 92 1010.5
20260905140513 72 257 2.0 3.0 0.00 0.10 0.10 90 1010.3
20260905140011 72 261 2.0 2.0 0.00 0.10 0.10 92 1010.5
20260905135508 72 266 3.0 3.0 0.00 0.10 0.10 91 1010.4
20260905135007 72 254 3.0 3.0 0.00 0.10 0.10 92 1010.5
20260905134502 72 254 2.0 3.0 0.00 0.10 0.10 92 1010.5
20260905134001 72 266 3.0 3.0 0.00 0.10 0.10 93 1010.4